{"data":{"norad_id":56348,"epoch":"2026-09-20T22:00:03.000096Z","epoch_age_seconds":72530,"freshness":"FRESH","line1":"1 56348U 23058AH  26263.91670139  .00804354  00000+0  30410-1 0  9991","line2":"2 56348  97.2853 257.7905 0001585  85.9938  33.8807 15.24329614  5740","mean_motion":15.24329614,"eccentricity":0.0001585,"inclination_deg":97.2853,"raan_deg":257.7905,"arg_perigee_deg":85.9938,"mean_anomaly_deg":33.8807,"bstar":0.03041,"rev_number":574,"period_min":94.467757286516,"perigee_km":491.71016828705,"apogee_km":493.88825506615,"semimajor_km":6870.9362116766,"source":"CELESTRAK","updated_at":"2026-09-21T09:00:33.406834Z"}}